Weather Roundup
Issued by NWS Chicago, IL

Home | Current Version | Previous Version | Graphics & Text | Print | Product List | Glossary On
Versions: 1 2 3 4 5 6 7 8 9 10 11 12 13 14 15 16 17 18 19 20 21 22 23 24 25 26 27 28 29 30 31 32 33 34 35 36 37 38 39 40 41 42 43 44 45 46 47 48 49 50
000
NZUS59 KLOT 302008
HRRLOT

CHICAGO AREA WEATHER ROUNDUP
NATIONAL WEATHER SERVICE CHICAGO/ROMEOVILLE IL
300 PM CDT SAT APR 30 2016

NOTE: "FAIR" INDICATES FEW OR NO CLOUDS BELOW 12,000 FEET WITH NO
SIGNIFICANT WEATHER AND/OR OBSTRUCTIONS TO VISIBILITY.

* THESE STATIONS ARE NOT UNDER NWS QUALITY CONTROL. THEY ALSO MAY NOT
  REPORT WEATHER SUCH AS PRECIPITATION OR FOG.

ILZ005-006-012>014-019>023-302100-
NORTHEAST ILLINOIS

CITY           SKY/WX    TMP DP  RH WIND       PRES   REMARKS
OHARE          LGT RAIN  45  42  89 NE15      29.94F FOG
MIDWAY         LGT RAIN  47  42  83 E17       29.93F FOG
AURORA         LGT RAIN  46  43  89 NE20      29.91F FOG
LANSING*       RAIN      47  45  91 E10       29.92R
JOLIET*        RAIN      48  47  95 NE10      29.91S
WAUKEGAN       LGT RAIN  43  41  93 NE12      29.98S FOG
DUPAGE AIRPORT HVY RAIN  45  41  86 NE14G22   29.93R FOG
WHEELING       LGT RAIN  44  42  93 E12G20    29.97F FOG
KANKAKEE*      RAIN      49  48  97 E15       29.88F
MORRIS*        RAIN      47  46  94 NE7G17    29.89S
LEWIS AIRPORT* RAIN      46  43  91 E13       29.91F
$$

WIZ051-052-058>065-066-070>072-302100-
SOUTHEAST WISCONSIN

CITY           SKY/WX    TMP DP  RH WIND       PRES   REMARKS
MILWAUKEE      LGT RAIN  44  39  82 NE15      30.02F
KENOSHA*       LGT RAIN  44  40  85 NE16      30.00F FOG
RACINE*        LGT RAIN  45  38  76 NE15G25   30.02F
BURLINGTON     LGT RAIN  43  40  89 NE12      30.00S
WAUKESHA       RAIN      43  37  81 E14G21    30.03F
WEST BEND      LGT RAIN  45  37  76 E9        30.05F
$$

INZ001>003-010>013-019-020-302100-
NORTHWEST INDIANA

CITY           SKY/WX    TMP DP  RH WIND       PRES   REMARKS
GARY*          LGT RAIN  48  48 100 E15       29.93F
MICHIGAN CITY* NOT AVBL
RENSSELAER*    NOT AVBL
VALPARAISO     LGT RAIN  47  45  93 E18       29.93S FOG
$$

LMZ740>746-302100-
SOUTHERN LAKE MICHIGAN

STATION/POSITION TIME  SKY/WX   TEMP WIND        PRES    VSBY
                                AIR  DIR/SP/G
                 (UTC)          (F)  (DEG/KT/KT) (MB)    (MI)
HARRISON CRIB    1900            45   70/ 22/ 26   N/A
BURNHAM HARBOR   2000            45   70/ 14/ 21   N/A
CALUMET HARBOR   1900            45   70/ 14/ 21 1013.2F
BURNS HARBOR     1906            47   80/ 16/ 20 1014.2F
MICHIGAN CITY    1900            47   60/ 16/ 19   N/A
$$

ABBREVIATIONS USED IN REMARKS
   TC - TEMPERATURE IN CELSIUS
  WCI - WIND CHILL INDEX
   HX - HEAT INDEX
  VSB - VISIBILITY
$$




USA.gov is the U.S. government's official web portal to all federal, state and local government web resources and services.